Tracking 28790 objects as of 19-Apr-2024
HD Live streaming from Space Station
objects crossing your sky now

CZ-6A DEB

Track CZ-6A DEB now!
10-day predictions


NORAD ID: 56583
Int'l Code: 2022-151ADF
Perigee: 652.5 km
Apogee: 815.2 km
Inclination: 98.7 °
Period: 99.3 minutes
Semi major axis: 7104 km
RCS: Unknown
Launch date: November 11, 2022
Source: People's Republic of China (PRC)
Launch site: Taiyaun Space Center, China (TSC)

Note: This is SATELLITE DEBRIS
Your satellite tracking list
Your tracking list is empty




NASA's NSSDC Master Catalog

Two Line Element Set (TLE):
1 56583U 22151ADF 24110.54706380  .00024484  00000-0  58467-2 0  9993
2 56583  98.6756 136.4283 0114491 167.8611 192.5383 14.49672598 57454
Source of the keplerian elements: AFSPC